Flag for Pakistan Weather past 2 weeks in Karachi, Pakistan

Now
93 °F

Scattered clouds.


Feels Like: 99 °F
Forecast: 82 / 91 °F
Wind: 12 mph from West

Location: Karachi Airport

Current Time: Aug 28, 2014 at 12:41:37 PM

Latest Report: Aug 28, 2014 at 11:55 AM


Visibility: 5 mi

Pressure: 29.68 "Hg

Humidity: 47%

Dew point: 70 °F

Location of KarachiLocation

Historic Weather in Karachi — Graph

°F

Karachi temperature yesterday

Maximum temperature yesterday: 91 °F (at 12:55 PM)
Minimum temperature yesterday: 81 °F (at 2:25 AM)
Average temperature yesterday: 85 °F

Past Weeks' High & Low Weather Summary

 TemperatureHumidityPressure
High93 °F (Aug 24, 1:55 PM)100% (Aug 20, 2:55 AM)29.83 "Hg (Aug 20, 2:55 AM)
Low45 °F (Aug 20, 2:55 AM)36% (Aug 24, 3:25 PM)29.47 "Hg (Aug 15, 3:55 PM)
Average85 °F64%29.67 "Hg
* Reported Aug 13 11:25 AM — Aug 28 11:25 AM, Karachi, Weather by CustomWeather, © 2014

Note: Actual official high and low records may vary slightly from our data, if they occured in-between our weather recording intervals... More about our weather records

Advertising

Karachi weather history for previous 24 hours

 ConditionsComfort  
Time TempWeatherWind HumidityBarometerVisibility
11:25 AM
Aug 28
91 °FScattered clouds.9 mph49%29.68 "Hg5 mi
10:55 AM90 °FScattered clouds.9 mph52%29.68 "Hg5 mi
10:25 AM88 °FScattered clouds.8 mph55%29.68 "Hg5 mi
9:55 AM86 °FScattered clouds.12 mph62%29.68 "Hg5 mi
9:25 AM86 °FScattered clouds.14 mph62%29.68 "Hg4 mi
8:55 AM84 °FScattered clouds.12 mph66%29.68 "Hg4 mi
7:55 AM82 °FPartly sunny.9 mph74%29.68 "Hg4 mi
7:25 AM82 °FPartly sunny.9 mph74%29.68 "Hg4 mi
6:55 AM82 °FPartly sunny.8 mph74%29.68 "Hg4 mi
6:25 AM82 °FPartly sunny.9 mph74%29.65 "Hg4 mi
5:55 AM82 °FPassing clouds.8 mph74%29.65 "Hg4 mi
4:55 AM82 °FPassing clouds.10 mph74%29.65 "Hg4 mi
4:25 AM82 °FPassing clouds.9 mph74%29.65 "Hg4 mi
3:55 AM82 °FPassing clouds.9 mph74%29.65 "Hg4 mi
3:25 AM82 °FPassing clouds.8 mph74%29.65 "Hg4 mi
2:55 AM82 °FPassing clouds.13 mph74%29.65 "Hg4 mi
2:25 AM82 °FPassing clouds.9 mph74%29.65 "Hg4 mi
1:55 AM82 °FPassing clouds.9 mph74%29.65 "Hg4 mi
1:25 AM82 °FPassing clouds.13 mph74%29.65 "Hg4 mi
12:55 AM81 °FPassing clouds.12 mph79%29.65 "Hg4 mi
12:25 AM82 °FPassing clouds.14 mph74%29.65 "Hg4 mi
11:55 PM
Aug 27
82 °FPassing clouds.15 mph74%29.65 "Hg4 mi
10:55 PM82 °FPassing clouds.18 mph70%29.62 "Hg4 mi
9:55 PM84 °FPassing clouds.14 mph66%29.68 "Hg4 mi
9:25 PM84 °FPassing clouds.12 mph66%29.68 "Hg4 mi
8:55 PM82 °FPassing clouds.12 mph70%29.65 "Hg4 mi
7:55 PM82 °FPassing clouds.15 mph70%29.62 "Hg4 mi
7:25 PM84 °FPassing clouds.15 mph66%29.59 "Hg4 mi
6:55 PM84 °FPassing clouds.15 mph66%29.59 "Hg4 mi
6:25 PM84 °FPartly sunny.20 mph66%29.59 "Hg4 mi
5:55 PM86 °FPartly sunny.22 mph59%29.59 "Hg4 mi
5:25 PM86 °FPartly sunny.26 mph59%29.56 "Hg4 mi
4:55 PM88 °FPartly sunny.21 mph55%29.59 "Hg4 mi
4:25 PM88 °FPartly sunny.17 mph55%29.59 "Hg4 mi
3:55 PM88 °FPartly sunny.21 mph55%29.59 "Hg4 mi
3:25 PM88 °FPartly sunny.21 mph55%29.59 "Hg4 mi
2:55 PM90 °FPartly sunny.24 mph52%29.62 "Hg4 mi
2:25 PM90 °FPartly sunny.24 mph52%29.62 "Hg4 mi
1:55 PM90 °FPartly sunny.17 mph52%29.62 "Hg4 mi
1:25 PM91 °FPartly sunny.25 mph49%29.62 "Hg4 mi
12:55 PM91 °FPartly sunny.18 mph46%29.65 "Hg4 mi
12:25 PM90 °FPartly sunny.21 mph49%29.65 "Hg4 mi
Weather by CustomWeather, © 2014

See weather overviewHow to use our weather pages